Time,TemperatureF,DewpointF,PressureIn,WindDirection,WindDirectionDegrees,WindSpeedMPH,WindSpeedGustMPH,Humidity,HourlyPrecipIn,Conditions,Clouds,dailyrainin,SolarRadiationWatts/m^2,SoftwareType,DateUTC
2013-03-14 00:02:00,44.0,19.0,-100.00,WSW,243,9.0,23.0,37,0.00,,,0.00,1.000000,,2013-03-14 06:02:00,
2013-03-14 00:12:00,44.0,19.0,-100.00,WSW,243,9.0,23.0,37,0.00,,,0.00,1.000000,,2013-03-14 06:12:00,
2013-03-14 00:22:00,44.0,19.0,-100.00,WSW,243,9.0,23.0,37,0.00,,,0.00,1.000000,,2013-03-14 06:22:00,
2013-03-14 00:42:00,45.0,20.0,-100.00,SW,219,8.0,24.0,36,0.00,,,0.00,1.000000,,2013-03-14 06:42:00,
2013-03-14 00:52:00,45.0,20.0,-100.00,SW,219,8.0,24.0,36,0.00,,,0.00,1.000000,,2013-03-14 06:52:00,
2013-03-14 01:02:00,45.0,20.0,-100.00,SW,219,8.0,24.0,36,0.00,,,0.00,1.000000,,2013-03-14 07:02:00,
2013-03-14 01:12:00,45.0,20.0,-100.00,SW,219,8.0,24.0,36,0.00,,,0.00,1.000000,,2013-03-14 07:12:00,
2013-03-14 01:22:00,45.0,20.0,-100.00,SW,219,8.0,24.0,36,0.00,,,0.00,1.000000,,2013-03-14 07:22:00,
2013-03-14 01:43:00,45.0,18.0,-100.00,SSW,203,9.0,19.0,34,0.00,,,0.00,1.000000,,2013-03-14 07:43:00,
2013-03-14 01:52:00,45.0,18.0,-100.00,SSW,203,9.0,19.0,34,0.00,,,0.00,1.000000,,2013-03-14 07:52:00,
2013-03-14 02:02:00,45.0,18.0,-100.00,SSW,203,9.0,19.0,34,0.00,,,0.00,1.000000,,2013-03-14 08:02:00,
2013-03-14 02:12:00,45.0,18.0,-100.00,SSW,203,9.0,19.0,34,0.00,,,0.00,1.000000,,2013-03-14 08:12:00,
2013-03-14 02:21:00,45.0,18.0,-100.00,SSW,203,9.0,19.0,34,0.00,,,0.00,1.000000,,2013-03-14 08:21:00,
2013-03-14 02:42:00,44.0,16.0,-100.00,SW,224,10.0,22.0,32,0.00,,,0.00,1.000000,,2013-03-14 08:42:00,
2013-03-14 02:52:00,44.0,16.0,-100.00,SW,224,10.0,22.0,32,0.00,,,0.00,1.000000,,2013-03-14 08:52:00,
2013-03-14 03:12:00,44.0,16.0,-100.00,SW,224,10.0,22.0,32,0.00,,,0.00,1.000000,,2013-03-14 09:12:00,
2013-03-14 03:22:00,44.0,16.0,-100.00,SW,224,10.0,22.0,32,0.00,,,0.00,1.000000,,2013-03-14 09:22:00,
2013-03-14 03:42:00,44.0,16.0,-100.00,WSW,255,13.0,25.0,32,0.00,,,0.00,1.000000,,2013-03-14 09:42:00,
2013-03-14 03:52:00,44.0,16.0,-100.00,WSW,255,13.0,25.0,32,0.00,,,0.00,1.000000,,2013-03-14 09:52:00,
2013-03-14 04:02:00,44.0,16.0,-100.00,WSW,255,13.0,25.0,32,0.00,,,0.00,1.000000,,2013-03-14 10:02:00,
2013-03-14 04:12:00,44.0,16.0,-100.00,WSW,255,13.0,25.0,32,0.00,,,0.00,1.000000,,2013-03-14 10:12:00,
2013-03-14 04:22:00,44.0,16.0,-100.00,WSW,255,13.0,25.0,32,0.00,,,0.00,1.000000,,2013-03-14 10:22:00,
2013-03-14 04:42:00,42.0,16.0,-100.00,West,263,14.0,34.0,35,0.00,,,0.00,1.000000,,2013-03-14 10:42:00,
2013-03-14 04:52:00,42.0,16.0,-100.00,West,263,14.0,34.0,35,0.00,,,0.00,1.000000,,2013-03-14 10:52:00,
2013-03-14 05:02:00,42.0,16.0,-100.00,West,263,14.0,34.0,35,0.00,,,0.00,1.000000,,2013-03-14 11:02:00,
2013-03-14 05:12:00,42.0,16.0,-100.00,West,263,14.0,34.0,35,0.00,,,0.00,1.000000,,2013-03-14 11:12:00,
2013-03-14 05:22:00,42.0,16.0,-100.00,West,263,14.0,34.0,35,0.00,,,0.00,1.000000,,2013-03-14 11:22:00,
2013-03-14 05:42:00,43.0,17.0,-100.00,West,262,11.0,30.0,34,0.00,,,0.00,1.000000,,2013-03-14 11:42:00,
2013-03-14 05:53:00,43.0,17.0,-100.00,West,262,11.0,30.0,34,0.00,,,0.00,1.000000,,2013-03-14 11:53:00,
2013-03-14 06:02:00,43.0,17.0,-100.00,West,262,11.0,30.0,34,0.00,,,0.00,1.000000,,2013-03-14 12:02:00,
2013-03-14 06:12:00,43.0,17.0,-100.00,West,262,11.0,30.0,34,0.00,,,0.00,1.000000,,2013-03-14 12:12:00,
2013-03-14 06:22:00,43.0,17.0,-100.00,West,262,11.0,30.0,34,0.00,,,0.00,1.000000,,2013-03-14 12:22:00,
2013-03-14 06:43:00,42.0,16.0,-100.00,West,265,13.0,25.0,35,0.00,,,0.00,1.000000,,2013-03-14 12:43:00,
2013-03-14 06:52:00,42.0,16.0,-100.00,West,265,13.0,25.0,35,0.00,,,0.00,1.000000,,2013-03-14 12:52:00,
2013-03-14 07:02:00,42.0,16.0,-100.00,West,265,13.0,25.0,35,0.00,,,0.00,1.000000,,2013-03-14 13:02:00,
2013-03-14 07:12:00,42.0,16.0,-100.00,West,265,13.0,25.0,35,0.00,,,0.00,1.000000,,2013-03-14 13:12:00,
2013-03-14 07:22:00,42.0,16.0,-100.00,West,265,13.0,25.0,35,0.00,,,0.00,1.000000,,2013-03-14 13:22:00,
2013-03-14 07:43:00,42.0,16.0,-100.00,West,262,12.0,24.0,34,0.00,,,0.00,1.000000,,2013-03-14 13:43:00,
2013-03-14 07:52:00,42.0,16.0,-100.00,West,262,12.0,24.0,34,0.00,,,0.00,1.000000,,2013-03-14 13:52:00,
2013-03-14 08:02:00,42.0,16.0,-100.00,West,262,12.0,24.0,34,0.00,,,0.00,1.000000,,2013-03-14 14:02:00,
2013-03-14 08:12:00,42.0,16.0,-100.00,West,262,12.0,24.0,34,0.00,,,0.00,1.000000,,2013-03-14 14:12:00,
2013-03-14 08:22:00,42.0,16.0,-100.00,West,262,12.0,24.0,34,0.00,,,0.00,1.000000,,2013-03-14 14:22:00,
2013-03-14 08:42:00,43.0,18.0,-100.00,West,263,11.0,23.0,36,0.00,,,0.00,23.000000,,2013-03-14 14:42:00,
2013-03-14 08:53:00,43.0,18.0,-100.00,West,263,11.0,23.0,36,0.00,,,0.00,23.000000,,2013-03-14 14:53:00,
2013-03-14 09:02:00,43.0,18.0,-100.00,West,263,11.0,23.0,36,0.00,,,0.00,23.000000,,2013-03-14 15:02:00,
2013-03-14 09:12:00,43.0,18.0,-100.00,West,263,11.0,23.0,36,0.00,,,0.00,23.000000,,2013-03-14 15:12:00,
2013-03-14 09:22:00,43.0,18.0,-100.00,West,263,11.0,23.0,36,0.00,,,0.00,23.000000,,2013-03-14 15:22:00,
2013-03-14 09:43:00,48.0,17.0,-100.00,WSW,250,10.0,19.0,29,0.00,,,0.00,211.000000,,2013-03-14 15:43:00,
2013-03-14 09:52:00,48.0,17.0,-100.00,WSW,250,10.0,19.0,29,0.00,,,0.00,211.000000,,2013-03-14 15:52:00,
2013-03-14 10:03:00,48.0,17.0,-100.00,WSW,250,10.0,19.0,29,0.00,,,0.00,211.000000,,2013-03-14 16:03:00,
2013-03-14 10:12:00,48.0,17.0,-100.00,WSW,250,10.0,19.0,29,0.00,,,0.00,211.000000,,2013-03-14 16:12:00,
2013-03-14 10:22:00,48.0,17.0,-100.00,WSW,250,10.0,19.0,29,0.00,,,0.00,211.000000,,2013-03-14 16:22:00,
2013-03-14 10:42:00,49.0,17.0,-100.00,SW,231,11.0,21.0,28,0.00,,,0.00,388.000000,,2013-03-14 16:42:00,
2013-03-14 10:52:00,49.0,17.0,-100.00,SW,231,11.0,21.0,28,0.00,,,0.00,388.000000,,2013-03-14 16:52:00,
2013-03-14 11:02:00,49.0,17.0,-100.00,SW,231,11.0,21.0,28,0.00,,,0.00,388.000000,,2013-03-14 17:02:00,
2013-03-14 11:12:00,49.0,17.0,-100.00,SW,231,11.0,21.0,28,0.00,,,0.00,388.000000,,2013-03-14 17:12:00,
2013-03-14 11:23:00,49.0,17.0,-100.00,SW,231,11.0,21.0,28,0.00,,,0.00,388.000000,,2013-03-14 17:23:00,
2013-03-14 11:42:00,51.0,16.0,-100.00,SW,236,13.0,23.0,25,0.00,,,0.00,582.000000,,2013-03-14 17:42:00,
2013-03-14 11:53:00,51.0,16.0,-100.00,SW,236,13.0,23.0,25,0.00,,,0.00,582.000000,,2013-03-14 17:53:00,
2013-03-14 12:03:00,51.0,16.0,-100.00,SW,236,13.0,23.0,25,0.00,,,0.00,582.000000,,2013-03-14 18:03:00,
2013-03-14 12:12:00,51.0,16.0,-100.00,SW,236,13.0,23.0,25,0.00,,,0.00,582.000000,,2013-03-14 18:12:00,
2013-03-14 12:22:00,51.0,16.0,-100.00,SW,236,13.0,23.0,25,0.00,,,0.00,582.000000,,2013-03-14 18:22:00,
2013-03-14 12:43:00,53.0,17.0,-100.00,WSW,240,15.0,26.0,24,0.00,,,0.00,709.000000,,2013-03-14 18:43:00,
2013-03-14 12:52:00,53.0,17.0,-100.00,WSW,240,15.0,26.0,24,0.00,,,0.00,709.000000,,2013-03-14 18:52:00,
2013-03-14 13:03:00,53.0,17.0,-100.00,WSW,240,15.0,26.0,24,0.00,,,0.00,709.000000,,2013-03-14 19:03:00,
2013-03-14 13:12:00,53.0,17.0,-100.00,WSW,240,15.0,26.0,24,0.00,,,0.00,709.000000,,2013-03-14 19:12:00,
2013-03-14 13:22:00,53.0,17.0,-100.00,WSW,240,15.0,26.0,24,0.00,,,0.00,709.000000,,2013-03-14 19:22:00,
2013-03-14 14:42:00,57.0,16.0,-100.00,WSW,258,14.0,26.0,20,-99.99,,,0.00,751.000000,,2013-03-14 20:42:00,
2013-03-14 14:52:00,57.0,16.0,-100.00,WSW,258,14.0,26.0,20,-99.99,,,0.00,751.000000,,2013-03-14 20:52:00,
2013-03-14 15:02:00,57.0,16.0,-100.00,WSW,258,14.0,26.0,20,-99.99,,,0.00,751.000000,,2013-03-14 21:02:00,
2013-03-14 15:12:00,57.0,16.0,-100.00,WSW,258,14.0,26.0,20,-99.99,,,0.00,751.000000,,2013-03-14 21:12:00,
2013-03-14 15:22:00,57.0,16.0,-100.00,WSW,258,14.0,26.0,20,-99.99,,,0.00,751.000000,,2013-03-14 21:22:00,
2013-03-14 15:43:00,53.0,13.0,-100.00,SW,234,10.0,26.0,20,0.00,,,0.00,371.000000,,2013-03-14 21:43:00,
2013-03-14 15:53:00,53.0,13.0,-100.00,SW,234,10.0,26.0,20,0.00,,,0.00,371.000000,,2013-03-14 21:53:00,
2013-03-14 16:03:00,53.0,13.0,-100.00,SW,234,10.0,26.0,20,0.00,,,0.00,371.000000,,2013-03-14 22:03:00,
2013-03-14 16:13:00,53.0,13.0,-100.00,SW,234,10.0,26.0,20,0.00,,,0.00,371.000000,,2013-03-14 22:13:00,
2013-03-14 16:23:00,53.0,13.0,-100.00,SW,234,10.0,26.0,20,0.00,,,0.00,371.000000,,2013-03-14 22:23:00,
2013-03-14 16:42:00,59.0,13.0,-100.00,WSW,254,8.0,18.0,16,0.00,,,0.00,407.000000,,2013-03-14 22:42:00,
2013-03-14 16:52:00,59.0,13.0,-100.00,WSW,254,8.0,18.0,16,0.00,,,0.00,407.000000,,2013-03-14 22:52:00,
2013-03-14 17:02:00,59.0,13.0,-100.00,WSW,254,8.0,18.0,16,0.00,,,0.00,407.000000,,2013-03-14 23:02:00,
2013-03-14 17:12:00,59.0,13.0,-100.00,WSW,254,8.0,18.0,16,0.00,,,0.00,407.000000,,2013-03-14 23:12:00,
2013-03-14 17:22:00,59.0,13.0,-100.00,WSW,254,8.0,18.0,16,0.00,,,0.00,407.000000,,2013-03-14 23:22:00,
2013-03-14 17:43:00,56.0,13.0,-100.00,WSW,246,13.0,25.0,18,0.00,,,0.00,525.000000,,2013-03-14 23:43:00,
2013-03-14 17:53:00,56.0,13.0,-100.00,WSW,246,13.0,25.0,18,0.00,,,0.00,525.000000,,2013-03-14 23:53:00,
2013-03-14 18:02:00,56.0,13.0,-100.00,WSW,246,13.0,25.0,18,0.00,,,0.00,525.000000,,2013-03-15 00:02:00,
2013-03-14 18:12:00,56.0,13.0,-100.00,WSW,246,13.0,25.0,18,0.00,,,0.00,525.000000,,2013-03-15 00:12:00,
2013-03-14 18:22:00,56.0,13.0,-100.00,WSW,246,13.0,25.0,18,0.00,,,0.00,525.000000,,2013-03-15 00:22:00,
2013-03-14 18:43:00,53.0,14.0,-100.00,WSW,247,6.0,21.0,21,0.00,,,0.00,175.000000,,2013-03-15 00:43:00,
2013-03-14 18:52:00,53.0,14.0,-100.00,WSW,247,6.0,21.0,21,0.00,,,0.00,175.000000,,2013-03-15 00:52:00,
2013-03-14 19:02:00,53.0,14.0,-100.00,WSW,247,6.0,21.0,21,0.00,,,0.00,175.000000,,2013-03-15 01:02:00,
2013-03-14 19:12:00,53.0,14.0,-100.00,WSW,247,6.0,21.0,21,0.00,,,0.00,175.000000,,2013-03-15 01:12:00,
2013-03-14 19:22:00,53.0,14.0,-100.00,WSW,247,6.0,21.0,21,0.00,,,0.00,175.000000,,2013-03-15 01:22:00,
2013-03-14 19:43:00,52.0,9.0,-100.00,WSW,256,5.0,11.0,17,0.00,,,0.00,77.000000,,2013-03-15 01:43:00,
2013-03-14 19:52:00,52.0,9.0,-100.00,WSW,256,5.0,11.0,17,0.00,,,0.00,77.000000,,2013-03-15 01:52:00,
2013-03-14 20:02:00,52.0,9.0,-100.00,WSW,256,5.0,11.0,17,0.00,,,0.00,77.000000,,2013-03-15 02:02:00,
2013-03-14 20:12:00,52.0,9.0,-100.00,WSW,256,5.0,11.0,17,0.00,,,0.00,77.000000,,2013-03-15 02:12:00,
2013-03-14 20:22:00,52.0,9.0,-100.00,WSW,256,5.0,11.0,17,0.00,,,0.00,77.000000,,2013-03-15 02:22:00,
2013-03-14 20:42:00,47.0,9.0,-100.00,West,268,3.0,13.0,21,0.00,,,0.00,3.000000,,2013-03-15 02:42:00,
2013-03-14 20:52:00,47.0,9.0,-100.00,West,268,3.0,13.0,21,0.00,,,0.00,3.000000,,2013-03-15 02:52:00,
2013-03-14 21:02:00,47.0,9.0,-100.00,West,268,3.0,13.0,21,0.00,,,0.00,3.000000,,2013-03-15 03:02:00,
2013-03-14 21:12:00,47.0,9.0,-100.00,West,268,3.0,13.0,21,0.00,,,0.00,3.000000,,2013-03-15 03:12:00,
2013-03-14 21:22:00,47.0,9.0,-100.00,West,268,3.0,13.0,21,0.00,,,0.00,3.000000,,2013-03-15 03:22:00,
2013-03-14 21:43:00,41.0,13.0,-100.00,WNW,295,3.0,8.0,32,0.00,,,0.00,1.000000,,2013-03-15 03:43:00,
2013-03-14 21:53:00,41.0,13.0,-100.00,WNW,295,3.0,8.0,32,0.00,,,0.00,1.000000,,2013-03-15 03:53:00,
2013-03-14 22:03:00,41.0,13.0,-100.00,WNW,295,3.0,8.0,32,0.00,,,0.00,1.000000,,2013-03-15 04:03:00,
2013-03-14 22:12:00,41.0,13.0,-100.00,WNW,295,3.0,8.0,32,0.00,,,0.00,1.000000,,2013-03-15 04:12:00,
2013-03-14 22:22:00,41.0,13.0,-100.00,WNW,295,3.0,8.0,32,0.00,,,0.00,1.000000,,2013-03-15 04:22:00,
2013-03-14 22:43:00,47.0,16.0,-100.00,West,264,9.0,17.0,29,0.00,,,0.00,1.000000,,2013-03-15 04:43:00,
2013-03-14 22:53:00,47.0,16.0,-100.00,West,264,9.0,17.0,29,0.00,,,0.00,1.000000,,2013-03-15 04:53:00,
2013-03-14 23:02:00,47.0,16.0,-100.00,West,264,9.0,17.0,29,0.00,,,0.00,1.000000,,2013-03-15 05:02:00,
2013-03-14 23:12:00,47.0,16.0,-100.00,West,264,9.0,17.0,29,0.00,,,0.00,1.000000,,2013-03-15 05:12:00,
2013-03-14 23:22:00,47.0,16.0,-100.00,West,264,9.0,17.0,29,0.00,,,0.00,1.000000,,2013-03-15 05:22:00,
2013-03-14 23:42:00,48.0,16.0,-100.00,West,265,7.0,19.0,27,0.00,,,0.00,1.000000,,2013-03-15 05:42:00,
2013-03-14 23:52:00,48.0,16.0,-100.00,West,265,7.0,19.0,27,0.00,,,0.00,1.000000,,2013-03-15 05:52:00,